When you browse on this site, cookies collect data to enhance your experience and personalize the content and advertising you see.
Visit our Privacy Policy to learn more. By continuing to use the site, you agree to this use of cookies and data.
  • In Austria
  • List of Countries
  • For 7 days
  • Water Temperature
  • Weather Map
  • News
  • Weather Widgets
  • user-avatar
    Login

    Hourly Weather Telavi

    Today, 28 January, Tuesday

    Time Temperature Precipitation Wind Pressure Humidity
    00:00 0°C° 0 mm 0 mps 712 mmHg 58%
    01:00 0°C° 0 mm 0 mps 712 mmHg 58%
    02:00 0°C° 0 mm 0 mps 712 mmHg 59%
    03:00 0°C° 0 mm 0 mps 711 mmHg 59%
    04:00 0°C° 0 mm 0 mps 711 mmHg 59%
    05:00 -1°C° 0 mm 0 mps 711 mmHg 58%
    06:00 -1°C° 0 mm 0 mps 710 mmHg 58%
    07:00 0°C° 0 mm 0 mps 710 mmHg 54%
    08:00 +1°C° 0 mm 0 mps 711 mmHg 50%
    09:00 +2°C° 0 mm 0 mps 711 mmHg 47%
    10:00 +4°C° 0 mm 0 mps 710 mmHg 43%
    11:00 +5°C° 0 mm 0 mps 710 mmHg 40%
    12:00 +6°C° 0 mm 0 mps 709 mmHg 37%
    13:00 +8°C° 0 mm 1 mps 709 mmHg 35%
    14:00 +8°C° 0 mm 1 mps 709 mmHg 34%
    15:00 +9°C° 0 mm 1 mps 708 mmHg 32%
    16:00 +6°C° 0 mm 0 mps 708 mmHg 37%
    17:00 +5°C° 0 mm 0 mps 708 mmHg 41%
    18:00 +3°C° 0 mm 0 mps 708 mmHg 45%
    19:00 +3°C° 0 mm 0 mps 708 mmHg 46%
    20:00 +3°C° 0 mm 0 mps 708 mmHg 47%
    21:00 +2°C° 0 mm 0 mps 708 mmHg 47%
    22:00 +2°C° 0 mm 0 mps 708 mmHg 48%
    23:00 +2°C° 0 mm 0 mps 708 mmHg 48%

    Tomorrow, 29 January, Wednesday

    Time Temperature Precipitation Wind Pressure Humidity
    00:00 +2°C° 0 mm 0 mps 707 mmHg 49%
    01:00 +2°C° 0 mm 0 mps 707 mmHg 49%
    02:00 +2°C° 0 mm 0 mps 707 mmHg 50%
    03:00 +2°C° 0 mm 0 mps 706 mmHg 50%
    04:00 +1°C° 0 mm 0 mps 706 mmHg 51%
    05:00 +1°C° 0 mm 0 mps 706 mmHg 52%
    06:00 +1°C° 0 mm 0 mps 706 mmHg 52%
    07:00 +2°C° 0 mm 0 mps 706 mmHg 49%
    08:00 +4°C° 0 mm 1 mps 706 mmHg 46%
    09:00 +5°C° 0 mm 1 mps 706 mmHg 42%
    10:00 +6°C° 0 mm 1 mps 706 mmHg 38%
    11:00 +8°C° 0 mm 1 mps 706 mmHg 34%
    12:00 +9°C° 0 mm 1 mps 705 mmHg 31%
    13:00 +9°C° 0 mm 1 mps 705 mmHg 30%
    14:00 +9°C° 0 mm 2 mps 705 mmHg 30%
    15:00 +9°C° 0 mm 2 mps 705 mmHg 29%
    16:00 +8°C° 0 mm 2 mps 705 mmHg 35%
    17:00 +7°C° 0 mm 2 mps 705 mmHg 40%
    18:00 +6°C° 0 mm 2 mps 705 mmHg 46%
    19:00 +6°C° 0 mm 2 mps 706 mmHg 51%
    20:00 +5°C° 0 mm 2 mps 706 mmHg 56%
    21:00 +4°C° 0 mm 3 mps 706 mmHg 61%
    22:00 +4°C° 0 mm 2 mps 706 mmHg 64%
    23:00 +4°C° 0 mm 2 mps 706 mmHg 67%

    Day after tomorrow, 30 January, Thursday

    Time Temperature Precipitation Wind Pressure Humidity
    00:00 +3°C° 0 mm 2 mps 706 mmHg 70%
    01:00 +3°C° 0 mm 2 mps 706 mmHg 71%
    02:00 +3°C° 0 mm 2 mps 706 mmHg 73%
    03:00 +2°C° 0 mm 2 mps 706 mmHg 74%
    04:00 +2°C° 0 mm 2 mps 706 mmHg 73%
    05:00 +2°C° 0 mm 2 mps 706 mmHg 72%
    06:00 +2°C° 0 mm 2 mps 706 mmHg 71%
    07:00 +3°C° 0 mm 2 mps 707 mmHg 66%
    08:00 +4°C° 0 mm 2 mps 707 mmHg 60%
    09:00 +4°C° 0 mm 2 mps 707 mmHg 55%
    10:00 +6°C° 0 mm 2 mps 707 mmHg 49%
    11:00 +7°C° 0 mm 3 mps 706 mmHg 44%
    12:00 +8°C° 0 mm 3 mps 706 mmHg 38%
    13:00 +9°C° 0 mm 3 mps 706 mmHg 39%
    14:00 +9°C° 0 mm 3 mps 706 mmHg 40%
    15:00 +10°C° 0 mm 3 mps 705 mmHg 41%
    16:00 +8°C° 0 mm 3 mps 705 mmHg 47%
    17:00 +7°C° 0 mm 2 mps 706 mmHg 53%
    18:00 +6°C° 0 mm 1 mps 706 mmHg 59%
    19:00 +6°C° 0 mm 1 mps 706 mmHg 60%
    20:00 +6°C° 0 mm 1 mps 705 mmHg 61%
    21:00 +5°C° 0 mm 1 mps 705 mmHg 62%
    22:00 +5°C° 0 mm 1 mps 705 mmHg 61%
    23:00 +5°C° 0 mm 1 mps 704 mmHg 59%

    31 January, Friday

    Time Temperature Precipitation Wind Pressure Humidity
    00:00 +4°C° 0 mm 0 mps 704 mmHg 58%
    01:00 +4°C° 0 mm 0 mps 704 mmHg 58%
    02:00 +4°C° 0 mm 0 mps 703 mmHg 57%
    03:00 +4°C° 0 mm 0 mps 703 mmHg 57%
    04:00 +5°C° 0 mm 1 mps 703 mmHg 57%
    05:00 +5°C° 0 mm 1 mps 703 mmHg 58%
    06:00 +5°C° 0 mm 1 mps 703 mmHg 59%
    07:00 +5°C° 0 mm 1 mps 703 mmHg 59%
    08:00 +6°C° 0 mm 1 mps 703 mmHg 59%
    09:00 +6°C° 0 mm 1 mps 703 mmHg 59%
    10:00 +7°C° 0 mm 1 mps 703 mmHg 55%
    11:00 +9°C° 0 mm 1 mps 703 mmHg 52%
    12:00 +10°C° 0 mm 1 mps 703 mmHg 48%
    13:00 +9°C° 0 mm 2 mps 702 mmHg 48%
    14:00 +9°C° 0 mm 2 mps 702 mmHg 48%
    15:00 +9°C° 0 mm 2 mps 702 mmHg 48%
    16:00 +8°C° 0 mm 3 mps 702 mmHg 56%
    17:00 +6°C° 0 mm 4 mps 702 mmHg 64%
    18:00 +3°C° 0 mm 5 mps 702 mmHg 73%
    19:00 +3°C° 0.1 mm 5 mps 703 mmHg 73%
    20:00 +2°C° 0.1 mm 5 mps 703 mmHg 74%
    21:00 +2°C° 0.1 mm 5 mps 703 mmHg 75%
    22:00 +1°C° 0.4 mm 4 mps 703 mmHg 78%
    23:00 +1°C° 0.4 mm 4 mps 703 mmHg 81%

    1 February, Saturday

    Time Temperature Precipitation Wind Pressure Humidity
    00:00 +1°C° 0.4 mm 4 mps 703 mmHg 84%
    01:00 +1°C° 0.2 mm 3 mps 702 mmHg 83%
    02:00 +1°C° 0.2 mm 3 mps 702 mmHg 82%
    03:00 +1°C° 0.2 mm 3 mps 702 mmHg 81%
    04:00 +1°C° 0.7 mm 3 mps 702 mmHg 85%
    05:00 0°C° 0.7 mm 3 mps 702 mmHg 89%
    06:00 -1°C° 0.7 mm 4 mps 702 mmHg 94%
    07:00 -1°C° 1.3 mm 4 mps 702 mmHg 94%
    08:00 -1°C° 1.3 mm 4 mps 702 mmHg 95%
    09:00 -2°C° 1.3 mm 4 mps 702 mmHg 95%
    10:00 -1°C° 0.6 mm 4 mps 702 mmHg 92%
    11:00 -1°C° 0.6 mm 4 mps 702 mmHg 89%
    12:00 0°C° 0.6 mm 4 mps 702 mmHg 86%
    13:00 0°C° 0.2 mm 4 mps 702 mmHg 83%
    14:00 +1°C° 0.2 mm 4 mps 702 mmHg 79%
    15:00 +1°C° 0.2 mm 4 mps 703 mmHg 75%
    16:00 +1°C° 0 mm 4 mps 703 mmHg 76%
    17:00 0°C° 0 mm 4 mps 703 mmHg 77%
    18:00 +1°C° 0 mm 3 mps 704 mmHg 77%
    19:00 0°C° 0 mm 3 mps 704 mmHg 78%
    20:00 0°C° 0 mm 3 mps 705 mmHg 78%
    21:00 0°C° 0 mm 3 mps 705 mmHg 78%
    22:00 0°C° 0 mm 3 mps 706 mmHg 78%
    23:00 -2°C° 0 mm 4 mps 706 mmHg 77%

    2 February, Sunday

    Time Temperature Precipitation Wind Pressure Humidity
    00:00 -2°C° 0 mm 4 mps 706 mmHg 77%
    01:00 -2°C° 0 mm 4 mps 707 mmHg 77%
    02:00 -2°C° 0 mm 4 mps 707 mmHg 77%
    03:00 -3°C° 0 mm 4 mps 707 mmHg 77%
    04:00 -3°C° 0 mm 4 mps 707 mmHg 77%
    05:00 -3°C° 0 mm 4 mps 708 mmHg 77%
    06:00 -4°C° 0 mm 4 mps 708 mmHg 77%
    07:00 -3°C° 0 mm 4 mps 708 mmHg 74%
    08:00 -2°C° 0 mm 4 mps 709 mmHg 71%
    09:00 -1°C° 0 mm 5 mps 709 mmHg 67%
    10:00 0°C° 0 mm 4 mps 709 mmHg 64%
    11:00 +1°C° 0 mm 4 mps 709 mmHg 61%
    12:00 +3°C° 0 mm 4 mps 709 mmHg 57%
    13:00 +3°C° 0 mm 4 mps 709 mmHg 56%
    14:00 +4°C° 0 mm 4 mps 709 mmHg 54%
    15:00 +4°C° 0 mm 4 mps 709 mmHg 53%
    16:00 +3°C° 0 mm 3 mps 709 mmHg 57%
    17:00 +2°C° 0 mm 3 mps 709 mmHg 60%
    18:00 +2°C° 0 mm 2 mps 710 mmHg 64%
    19:00 +1°C° 0 mm 2 mps 710 mmHg 65%
    20:00 +2°C° 0 mm 1 mps 710 mmHg 67%
    21:00 +1°C° 0 mm 1 mps 710 mmHg 68%
    22:00 +1°C° 0 mm 1 mps 710 mmHg 69%
    23:00 +1°C° 0 mm 1 mps 710 mmHg 70%
    Show more